This is the latest recevied weather packets stored in our database for station/object OH6GKW. If no packets are shown the sender has not sent any weather packets the latest 10 day(s).
| Time | Temp. | Humidity | Pressure | Rain* | Wind** | Luminosity | Snow |
|---|---|---|---|---|---|---|---|
| 1788374332 | 11.67° C | 97% | 1001.6 hPa | 0.25 mm | - | 0 W/m² | - |
| 1788374023 | 12.22° C | 97% | 1001.6 hPa | 0.25 mm | - | 0 W/m² | - |
| 1788373713 | 12.22° C | 96% | 1001.6 hPa | 0.25 mm | - | 0 W/m² | - |
| 1788373425 | 12.22° C | 96% | 1001.6 hPa | 0.25 mm | - | 0 W/m² | - |
| 1788373116 | 12.78° C | 95% | 1001.6 hPa | 0.25 mm | - | 0 W/m² | - |
| 1788372812 | 12.78° C | 94% | 1001.7 hPa | 0.25 mm | - | 0 W/m² | - |
| 1788372536 | 13.33° C | 94% | 1001.7 hPa | 0.25 mm | - | 0 W/m² | - |
| 1788372230 | 13.33° C | 93% | 1001.7 hPa | 0.25 mm | - | 0 W/m² | - |
| 1788371920 | 13.33° C | 92% | 1001.7 hPa | 0.25 mm | - | 0 W/m² | - |
| 1788371612 | 13.89° C | 91% | 1001.7 hPa | 0.25 mm | - | 0 W/m² | - |
| 1788371323 | 13.89° C | 90% | 1001.7 hPa | 0.25 mm | - | 0 W/m² | - |
| 1788371012 | 13.89° C | 89% | 1001.8 hPa | 0.25 mm | - | 0 W/m² | - |
| 1788370709 | 14.44° C | 88% | 1001.8 hPa | 0.25 mm | - | 0 W/m² | - |
| 1788370423 | 14.44° C | 88% | 1001.8 hPa | 0.25 mm | - | 5 W/m² | - |
| 1788370117 | 15° C | 86% | 1001.9 hPa | 0.25 mm | - | 7 W/m² | - |
| 1788369809 | 15.56° C | 85% | 1001.9 hPa | 0.25 mm | - | 12 W/m² | - |
| 1788369533 | 15.56° C | 83% | 1001.9 hPa | 0.25 mm | - | 14 W/m² | - |
| 1788369226 | 16.11° C | 81% | 1002 hPa | 0.25 mm | - | 23 W/m² | - |
| 1788368921 | 16.67° C | 80% | 1002 hPa | 0.25 mm | - | 25 W/m² | - |
| 1788368619 | 16.67° C | 80% | 1002 hPa | 0.25 mm | - | 39 W/m² | - |
| 1788368314 | 16.67° C | 78% | 1002 hPa | 0.25 mm | - | 46 W/m² | - |
| 1788368011 | 17.22° C | 78% | 1002 hPa | 0.25 mm | - | 55 W/m² | - |
| 1788367719 | 17.78° C | 76% | 1002 hPa | 0.25 mm | - | 60 W/m² | - |
| 1788367417 | 18.33° C | 74% | 1002.1 hPa | 0.25 mm | - | 69 W/m² | - |
| 1788367109 | 18.33° C | 71% | 1002.1 hPa | 0.25 mm | - | 77 W/m² | - |
* Rain since midnight (hover to see other rain measurements)
** Current wind speed in m/s (hover to see current wind gust speed)